Terug naar catalogus

STARLINK-2455

ActiefCommunicatieVLEO
NORAD 48117·PAYLOAD·🇺🇸 United States

Gelanceerd Apr 7, 2021 vanaf Cape Canaveral Space Force Station

Loading…

Volgende Passages (komende 24 uur)

TLE

VersSource: CelesTrak SupGP

Epoch: Sep 14, 2026, 21:51 UTC

1 48117C 21027AB  26257.91090278 -.00031382  00000+0 -10090-2 0  2578
2 48117  53.1600 351.8979 0001063  84.5937 123.5930 15.31723748    11

Volg STARLINK-2455 in realtime met AllMySat

Download on the App Store